This demonstration page uses our WeatherBlox Daily Observations layout. Learn more.

Left ArrowRight Arrow

34.02893, -84.19858

Hourly Observations for August 18, 2022

Temp ( °F °C ) Dew Point ( °F °C ) Humidity (%) Winds ( mph kmh ) Pressure ( in mb ) Visibility ( mi km ) Precip ( " mm )
12:53 am 00:53 Cloudy 69 20.6 66 18.9 90 90 WSW 3 6 29.95 1014 10 16 0.00 0.00
1:53 am 01:53 Cloudy 69 20.6 66 18.9 90 90 NW 3 6 29.95 1014 10 16 0.00 0.00
2:53 am 02:53 Cloudy 68 20 67 19.4 96 96 Calm 29.94 1014 10 16 0.00 0.00
3:53 am 03:53 Cloudy 69 20.6 66 18.9 90 90 Calm 29.94 1014 10 16 0.00 0.00
4:53 am 04:53 Cloudy 68 20 67 19.4 96 96 Calm 29.93 1014 8 13 0.00 0.00
5:53 am 05:53 Cloudy 69 20.6 66 18.9 90 90 Calm 29.94 1014 10 16 0.00 0.00
6:53 am 06:53 Cloudy 69 20.6 67 19.4 93 93 Calm 29.94 1014 8 13 0.00 0.00
7:53 am 07:53 Cloudy 70 21.1 67 19.4 90 90 VRB 5 7 29.95 1014 10 16 0.00 0.00
8:53 am 08:53 Partly Cloudy 71 21.7 67 19.4 87 87 undefined N/A 29.96 1015 10 16 0.00 0.00
9:22 am 09:22 Mostly Cloudy 71 21.7 67 19.4 87 87 VRB 3 6 29.98 1015 10 16 0.00 0.00
9:53 am 09:53 Cloudy 72 22.2 67 19.4 84 84 E 6 9 29.98 1015 10 16 0.00 0.00
10:34 am 10:34 Mostly Cloudy 75 23.9 68 20 79 79 VRB 3 6 29.97 1015 10 16 0.00 0.00
10:53 am 10:53 Mostly Cloudy 76 24.4 68 20 77 77 VRB 5 7 29.97 1015 10 16 0.00 0.00
11:53 am 11:53 Mostly Cloudy 78 25.6 67 19.4 69 69 undefined N/A 29.97 1015 10 16 0.00 0.00
12:08 pm 12:08 Cloudy 77 25 67 19.4 71 71 Calm 29.97 1015 10 16 0.00 0.00
12:34 pm 12:34 Cloudy 77 25 67 19.4 71 71 Calm 29.97 1015 10 16 0.00 0.00
12:41 pm 12:41 Cloudy 77 25 67 19.4 71 71 ESE 3 6 29.96 1014 10 16 0.00 0.00
12:53 pm 12:53 Cloudy 80 26.7 68 20 67 67 VRB 3 6 29.96 1015 10 16 0.00 0.00
1:00 pm 13:00 Cloudy 78 25.6 68 20 71 71 Calm 29.95 1014 10 16 0.00 0.00
1:53 pm 13:53 Cloudy 80 26.7 67 19.4 64 64 Calm 29.96 1014 10 16 0.00 0.00
2:53 pm 14:53 Cloudy 79 26.1 67 19.4 67 67 Calm 29.94 1014 10 16 0.00 0.00
3:53 pm 15:53 Cloudy 77 25 68 20 74 74 SE 3 6 29.93 1014 10 16 0.00 0.00
4:53 pm 16:53 Cloudy 79 26.1 69 20.6 72 72 VRB 3 6 29.93 1014 10 16 0.00 0.00
5:53 pm 17:53 Mostly Sunny 80 26.7 68 20 67 67 Calm 29.92 1013 10 16 0.00 0.00
6:53 pm 18:53 Sunny 79 26.1 68 20 69 69 Calm 29.91 1013 10 16 0.00 0.00
7:53 pm 19:53 Sunny 77 25 68 20 74 74 Calm 29.92 1013 10 16 0.00 0.00
8:53 pm 20:53 Clear 73 22.8 70 21.1 90 90 Calm 29.93 1014 9 14 0.00 0.00
9:53 pm 21:53 Partly Cloudy 73 22.8 70 21.1 90 90 Calm 29.94 1014 10 16 0.00 0.00
10:53 pm 22:53 Mostly Cloudy 71 21.7 69 20.6 93 93 Calm 29.96 1014 10 16 0.00 0.00
11:53 pm 23:53 Cloudy 72 22.2 69 20.6 91 91 Calm 29.96 1014 10 16 0.00 0.00

Powered by AerisWeather